Location: Cisewo
(53.3833°N, 14.9000°E)
Time: 10:29:50
(UTC+00:00)

Cosmos 1743 - Pass Details

Date: 18 April 2021
Orbit: 509 x 526 km, 82.6° (Epoch: 14 May)

Event Time Altitude Azimuth Distance (km) Brightness Sun altitude
Rises 23:25:40 0° 356° (N) 2,635 7.6 -25.2°
Reaches altitude 10° 23:28:02 10° 8° (N) 1,743 6.4 -25.2°
Maximum altitude 23:31:22 28° 69° (ENE) 986 4.3 -25.1°
Enters shadow 23:31:32 28° 74° (ENE) 988 4.3 -25.1°
